2022-153B

Last updated on Wed Dec 14 2022 00:02:52 GMT+0000 (Coordinated Universal Time)

1 54244U 22153B 22347.50420847 .00000149 00000+0 00000+0 0 9992 2 54244 0.0166 35.5925 0002502 247.9183 191.1285 1.00272297 306

Satellite not in orbit

2022-153B